sat.trackr.live / text

‹ back to catalog

GEESAT-3 06

NORAD 61016 · 2024-159F

PAYLOAD ACTIVE UNKNOWN

§ Identity

Operator
Country
PRC
Launch date
2024-09-05
Launch site
TAISC
Launch vehicle
Mass (kg)
RCS (m²)

External: N2YO · Heavens-Above · Gunter

§ Orbital elements

Epoch: 2026-09-22T20:36:36.571968Z

Period
97.00 min
Inclination
49.9998°
Eccentricity
0.0015999
Mean motion
14.84518694 rev/d
Perigee alt
603.9 km
Apogee alt
626.3 km
Semi-major
6,993.2 km
B*
1.4875e-4
RAAN
350.1975°
Arg perigee
94.3727°
Mean anomaly
265.9040°
Rev number
11,127

§ Raw data

GEESAT-3 061 61016U 24159F   26265.85875662  .00001038  00000+0  14875-3 0  99922 61016  49.9998 350.1975 0015999  94.3727 265.9040 14.84518694111277

JSON: /api/v1/satellites/61016 · /tle

For live sub-satellite position, see the globe view (requires WebGL).

§ Visibility from observer

Set your observer location to see the next 7 days of passes ≥ 10°. The values pass through the URL so the page stays shareable.

No JS? Fill the form by hand. The geolocation button needs JavaScript.